Starlink 30113

operational
NORAD ID: 56291 Int'l Des: 2023-056 Owner: SPXS Country: US Constellation: starlink
LEOCIRCULAR

Über Starlink 30113

Beschreibung wird geladen...

Live-Position

3D-Globus wird geladen...

Nächste Überflüge

Höhenverlauf

Altitude vs Time

uPlot chart will show altitude changes over time

Zweizeiliger Elementsatz

1 56291U 23056F 26035.36587353 -.00000472 00000-0 -19847-4 0 9993
2 56291 43.0059 31.1370 0001329 273.3275 86.7415 15.02535831155011
Epoch: 4. Feb. 2026 • Age: 11 hours

Aktueller Status

Höhe 568.8 km
Geschwindigkeit 7.58 km/s
Subsatellitenpunkt -36.00°S, 166.67°W
Startdatum 19. Apr. 2023
Alter 2.7 years
Typ internet

Technische Details

Klassifizierung Payload
Masse 730.00 kg
Trockenmasse 700.00 kg
Gesamtmasse 730.00 kg
Länge 0.30 m
Durchmesser 4.10 m
Spannweite 29.00 m
Form Box + pan
Hersteller SPXS
Bus-Typ Starlink V2M
Phasenstatus In Orbit
Besitzer/Staat SPXS/US

Große Konstellationen

Loading constellations...